Regional Weather Roundup
Issued by NWS Raleigh/Durham, NC

Home | Current Version | Previous Version | Text Only | Print | Product List | Glossary On
Versions: 1 2 3 4 5 6 7 8 9 10 11 12 13 14 15 16 17 18 19 20 21 22 23 24 25 26 27 28 29 30 31 32 33 34 35 36 37 38 39 40 41 42 43 44 45 46 47 48 49 50
000
ASUS42 KRAH 220110
RWRRAH
NORTH CAROLINA WEATHER ROUNDUP
NATIONAL WEATHER SERVICE RALEIGH NC
800 PM EST SAT JAN 21 2017

NOTE: "FAIR" INDICATES FEW OR NO CLOUDS BELOW 12,000 FEET WITH NO
SIGNIFICANT WEATHER AND/OR OBSTRUCTIONS TO VISIBILITY.

NCZ001-053-055-056-065-067-220200-
WESTERN NORTH CAROLINA

CITY           SKY/WX    TMP DP  RH WIND       PRES   REMARKS
ASHEVILLE      CLOUDY    53  50  89 CALM      29.71S
JEFFERSON      DRZL/FOG  48  48 100 CALM      29.72F VSB 1/4
MORGANTON      CLOUDY    52  52 100 N3        29.74F
HICKORY        CLOUDY    53  53 100 N5        29.69F FOG
RUTHERFORDTON  CLOUDY    54  54 100 CALM      29.70R
MOUNT AIRY     RAIN      54  52  94 N6        29.73F
BOONE          CLOUDY    49  49 100 CALM      29.73F
$$

NCZ021-022-025-041-071-084-088-220200-
CENTRAL NORTH CAROLINA

CITY           SKY/WX    TMP DP  RH WIND       PRES   REMARKS
CHARLOTTE      CLOUDY    56  53  90 NE6       29.66F
GREENSBORO     LGT RAIN  53  53 100 N5        29.69F
WINSTON-SALEM  RAIN      54  52  93 N6        29.70F FOG
RALEIGH-DURHAM LGT RAIN  54  53  97 E6        29.71F FOG
FORT BRAGG     CLOUDY    60  60 100 CALM      29.67R FOG
FAYETTEVILLE   CLOUDY    64  63  96 SE6       29.66F
BURLINGTON     LGT RAIN  54  53  97 NE6       29.69F FOG
LAURINBURG     CLOUDY    64  63  96 S8        29.65F
$$

NCZ011-015-027-028-043-044-047-080-103-220200-
NORTHEASTERN NORTH CAROLINA

CITY           SKY/WX    TMP DP  RH WIND       PRES   REMARKS
ROCKY MT-WILSO CLOUDY    54  54 100 E5        29.73F FOG
GREENVILLE     CLOUDY    55  55 100 SE5       29.77F
WASHINGTON     CLOUDY    55  54  97 E6          N/A
ELIZABETH CITY LGT RAIN  50  49  96 E5        29.78F
MANTEO         CLOUDY    50  50 100 E8        29.79F
CAPE HATTERAS  LGT RAIN  59  56  89 E6        29.78F
$$

NCZ078-087-090-091-093-098-101-220200-
SOUTHEASTERN NORTH CAROLINA

CITY           SKY/WX    TMP DP  RH WIND       PRES   REMARKS
LUMBERTON      LGT RAIN  65  64  97 S21G37    29.60F
GOLDSBORO      LGT RAIN  57  57 100 E13       29.67F
KINSTON        LGT RAIN  57  57 100 SE5       29.75F
KENANSVILLE    LGT RAIN  59  59 100 SE3       29.74F FOG
NEW BERN       CLOUDY    54  54 100 CALM      29.77F
CHERRY POINT   CLOUDY    54  52  93 E3        29.76F
BEAUFORT       CLOUDY    55  54  96 E5        29.75F
JACKSONVILLE   CLOUDY    62  62 100 CALM      29.74F
WILMINGTON     CLOUDY    63  63 100 S5        29.74F
$$




USA.gov is the U.S. government's official web portal to all federal, state and local government web resources and services.